| time (UTC) | temp F | wind direction | speed knots | gust knots | rain 1hr in | rain 24hr in | rain mn in | humidity % | barometer mb |
| 20260508073110 | 51 | 0 | 0.9 | 4.3 | 0.00 | 0.00 | 0.00 | 82 | 1017.2 |
| 20260508071555 | 50 | 22 | 0.9 | 4.3 | 0.00 | 0.00 | 0.00 | 82 | 1017.2 |
| 20260508070058 | 51 | 351 | 1.7 | 2.6 | 0.00 | 0.00 | 0.00 | 82 | 1017.1 |
| 20260508064612 | 51 | 5 | 0.9 | 4.3 | 0.00 | 0.00 | 0.00 | 82 | 1016.9 |
| 20260508063109 | 50 | 311 | 0.9 | 3.5 | 0.00 | 0.00 | 0.00 | 83 | 1016.8 |
| 20260508061609 | 50 | 315 | 0.9 | 4.3 | 0.00 | 0.00 | 0.00 | 83 | 1016.8 |
| 20260508060111 | 50 | 28 | 0.9 | 4.3 | 0.00 | 0.00 | 0.00 | 83 | 1016.5 |
| 20260508054559 | 50 | 5 | 1.7 | 5.2 | 0.00 | 0.00 | 0.00 | 83 | 1016.5 |
| 20260508053058 | 50 | 0 | 0.0 | 4.3 | 0.00 | 0.00 | 0.00 | 83 | 1016.5 |
| 20260508051609 | 50 | 311 | 2.6 | 4.3 | 0.00 | 0.00 | 0.00 | 83 | 1016.3 |
| 20260508050055 | 50 | 342 | 0.0 | 3.5 | 0.00 | 0.00 | 0.00 | 83 | 1016.3 |
| 20260508044552 | 49 | 0 | 0.9 | 2.6 | 0.00 | 0.00 | 0.00 | 83 | 1016.5 |
| 20260508043051 | 50 | 0 | 0.9 | 3.5 | 0.00 | 0.00 | 0.00 | 83 | 1016.4 |
| 20260508041555 | 50 | 333 | 0.9 | 4.3 | 0.00 | 0.00 | 0.00 | 83 | 1016.3 |
| 20260508040059 | 50 | 5 | 0.9 | 3.5 | 0.00 | 0.00 | 0.00 | 82 | 1016.1 |
| 20260508034554 | 50 | 360 | 1.7 | 7.0 | 0.00 | 0.00 | 0.00 | 83 | 1015.9 |
| 20260508033058 | 50 | 0 | 0.0 | 3.5 | 0.00 | 0.00 | 0.00 | 82 | 1015.9 |
| 20260508031558 | 50 | 5 | 0.9 | 3.5 | 0.00 | 0.00 | 0.00 | 82 | 1016.0 |
| 20260508024617 | 50 | 0 | 0.9 | 4.3 | 0.00 | 0.00 | 0.00 | 82 | 1015.7 |
| 20260508023058 | 50 | 46 | 1.7 | 5.2 | 0.00 | 0.00 | 0.00 | 82 | 1015.5 |
| 20260508021606 | 50 | 42 | 0.9 | 4.3 | 0.00 | 0.00 | 0.00 | 82 | 1015.6 |
| 20260508020057 | 50 | 27 | 0.9 | 2.6 | 0.00 | 0.00 | 0.00 | 82 | 1015.5 |
| 20260508014557 | 50 | 24 | 1.7 | 6.1 | 0.00 | 0.00 | 0.00 | 82 | 1015.6 |
| 20260508013051 | 50 | 5 | 1.7 | 5.2 | 0.00 | 0.00 | 0.00 | 82 | 1015.6 |
| 20260508011604 | 51 | 57 | 0.9 | 3.5 | 0.00 | 0.00 | 0.00 | 83 | 1015.6 |
| 20260508010057 | 51 | 355 | 1.7 | 5.2 | 0.00 | 0.00 | 0.00 | 83 | 1015.6 |
| 20260508004603 | 51 | 13 | 0.0 | 7.0 | 0.00 | 0.00 | 0.00 | 83 | 1015.6 |
| 20260508003052 | 51 | 40 | 1.7 | 4.3 | 0.00 | 0.00 | 0.00 | 83 | 1015.6 |
| 20260508001554 | 51 | 15 | 0.9 | 4.3 | 0.00 | 0.00 | 0.00 | 84 | 1015.5 |
| 20260508000057 | 51 | 22 | 0.0 | 2.6 | 0.00 | 0.00 | 0.00 | 84 | 1015.5 |
| 20260507234557 | 51 | 17 | 0.0 | 2.6 | 0.00 | 0.00 | 0.00 | 84 | 1015.4 |
| 20260507233100 | 51 | 0 | 0.0 | 2.6 | 0.00 | 0.00 | 0.00 | 85 | 1015.4 |
| 20260507231559 | 51 | 0 | 0.0 | 1.7 | 0.00 | 0.00 | 0.00 | 85 | 1015.7 |
| 20260507230108 | 51 | 0 | 0.0 | 3.5 | 0.00 | 0.00 | 0.00 | 84 | 1015.5 |
| 20260507224555 | 51 | 0 | 0.0 | 0.0 | 0.00 | 0.00 | 0.00 | 84 | 1015.3 |
| 20260507223050 | 51 | 318 | 0.0 | 2.6 | 0.00 | 0.00 | 0.00 | 83 | 1015.4 |
| 20260507221551 | 52 | 351 | 0.0 | 1.7 | 0.00 | 0.00 | 0.00 | 82 | 1015.2 |
| 20260507220059 | 52 | 32 | 0.9 | 6.1 | 0.00 | 0.00 | 0.00 | 82 | 1015.0 |
| 20260507214555 | 52 | 332 | 0.0 | 4.3 | 0.00 | 0.00 | 0.00 | 82 | 1015.0 |
| 20260507213055 | 52 | 17 | 0.9 | 3.5 | 0.00 | 0.00 | 0.00 | 82 | 1014.7 |
| 20260507211556 | 53 | 0 | 1.7 | 5.2 | 0.00 | 0.00 | 0.00 | 82 | 1014.7 |
| 20260507210108 | 53 | 352 | 0.0 | 3.5 | 0.00 | 0.00 | 0.00 | 82 | 1014.7 |
| 20260507204558 | 53 | 348 | 0.0 | 3.5 | 0.00 | 0.00 | 0.00 | 81 | 1014.5 |
| 20260507203115 | 53 | 42 | 1.7 | 4.3 | 0.00 | 0.00 | 0.00 | 80 | 1014.3 |
| 20260507201554 | 53 | 0 | 0.9 | 4.3 | 0.00 | 0.00 | 0.00 | 80 | 1014.6 |
| 20260507200100 | 53 | 5 | 0.9 | 3.5 | 0.00 | 0.00 | 0.00 | 81 | 1014.5 |
| 20260507194618 | 54 | 9 | 0.9 | 5.2 | 0.00 | 0.00 | 0.00 | 80 | 1014.5 |
| 20260507193058 | 54 | 324 | 1.7 | 4.3 | 0.00 | 0.00 | 0.00 | 80 | 1014.5 |
| 20260507191555 | 55 | 308 | 0.9 | 5.2 | 0.00 | 0.00 | 0.00 | 79 | 1014.4 |
| 20260507190057 | 55 | 348 | 1.7 | 7.0 | 0.00 | 0.00 | 0.00 | 79 | 1014.4 |
| 20260507184554 | 55 | 360 | 1.7 | 5.2 | 0.00 | 0.00 | 0.00 | 78 | 1014.1 |
| 20260507183056 | 56 | 18 | 1.7 | 3.5 | 0.00 | 0.00 | 0.00 | 78 | 1014.1 |
| 20260507181553 | 56 | 34 | 2.6 | 5.2 | 0.00 | 0.00 | 0.00 | 77 | 1013.9 |
| 20260507180058 | 57 | 5 | 1.7 | 5.2 | 0.00 | 0.00 | 0.00 | 77 | 1013.5 |
| 20260507174602 | 57 | 40 | 0.9 | 3.5 | 0.00 | 0.00 | 0.00 | 77 | 1013.2 |
| 20260507173129 | 57 | 352 | 1.7 | 7.0 | 0.00 | 0.00 | 0.00 | 76 | 1012.8 |
| 20260507171550 | 58 | 5 | 4.3 | 9.6 | 0.00 | 0.00 | 0.00 | 75 | 1012.3 |
| 20260507170054 | 59 | 5 | 2.6 | 7.0 | 0.00 | 0.00 | 0.00 | 74 | 1012.6 |
| 20260507164552 | 60 | 355 | 0.9 | 7.8 | 0.00 | 0.00 | 0.00 | 74 | 1012.2 |
| 20260507163051 | 61 | 34 | 2.6 | 7.0 | 0.00 | 0.00 | 0.00 | 73 | 1012.2 |
| 20260507161602 | 61 | 5 | 1.7 | 7.0 | 0.00 | 0.00 | 0.00 | 73 | 1012.4 |
| 20260507154557 | 62 | 319 | 1.7 | 6.1 | 0.00 | 0.00 | 0.00 | 72 | 1012.6 |
| 20260507153059 | 62 | 301 | 3.5 | 6.1 | 0.00 | 0.00 | 0.00 | 72 | 1012.4 |
| 20260507151552 | 63 | 26 | 1.7 | 7.0 | 0.00 | 0.00 | 0.00 | 72 | 1012.4 |
| 20260507150054 | 63 | 285 | 4.3 | 7.0 | 0.00 | 0.00 | 0.00 | 72 | 1012.3 |
| 20260507144600 | 63 | 286 | 2.6 | 7.0 | 0.00 | 0.00 | 0.00 | 72 | 1012.1 |
| 20260507143059 | 63 | 298 | 4.3 | 10.4 | 0.00 | 0.00 | 0.00 | 72 | 1011.9 |
| 20260507141559 | 64 | 288 | 3.5 | 7.0 | 0.00 | 0.00 | 0.00 | 72 | 1011.9 |
| 20260507140050 | 64 | 323 | 2.6 | 7.8 | 0.00 | 0.00 | 0.00 | 72 | 1012.0 |
| 20260507134553 | 64 | 281 | 2.6 | 6.1 | 0.00 | 0.00 | 0.00 | 72 | 1011.9 |
| 20260507133139 | 63 | 317 | 1.7 | 7.0 | 0.00 | 0.00 | 0.00 | 73 | 1011.9 |
| 20260507131550 | 64 | 5 | 2.6 | 8.7 | 0.00 | 0.00 | 0.00 | 71 | 1011.7 |
| 20260507130107 | 63 | 307 | 2.6 | 8.7 | 0.00 | 0.00 | 0.00 | 73 | 1011.8 |
| 20260507124601 | 63 | 292 | 3.5 | 12.2 | 0.00 | 0.00 | 0.00 | 73 | 1011.6 |
| 20260507123054 | 63 | 360 | 3.5 | 9.6 | 0.00 | 0.00 | 0.00 | 73 | 1011.6 |
| 20260507121555 | 63 | 280 | 1.7 | 8.7 | 0.00 | 0.00 | 0.00 | 73 | 1011.6 |
| 20260507120055 | 63 | 299 | 3.5 | 11.3 | 0.00 | 0.00 | 0.00 | 73 | 1011.3 |
| 20260507114600 | 63 | 292 | 4.3 | 10.4 | 0.00 | 0.00 | 0.00 | 73 | 1011.3 |
| 20260507113052 | 64 | 295 | 4.3 | 10.4 | 0.00 | 0.00 | 0.00 | 72 | 1011.2 |
| 20260507111553 | 65 | 304 | 5.2 | 12.2 | 0.00 | 0.00 | 0.00 | 71 | 1010.9 |
| 20260507110057 | 67 | 308 | 3.5 | 13.0 | 0.00 | 0.00 | 0.00 | 70 | 1010.6 |
| 20260507104551 | 68 | 299 | 2.6 | 7.0 | 0.00 | 0.00 | 0.00 | 68 | 1010.3 |
| 20260507103056 | 68 | 345 | 2.6 | 7.8 | 0.00 | 0.00 | 0.00 | 67 | 1010.2 |
| 20260507101555 | 68 | 282 | 3.5 | 7.8 | 0.00 | 0.00 | 0.00 | 68 | 1010.1 |
| 20260507100053 | 68 | 284 | 3.5 | 9.6 | 0.00 | 0.00 | 0.00 | 66 | 1010.1 |
| 20260507094558 | 68 | 236 | 7.0 | 13.0 | 0.00 | 0.00 | 0.00 | 65 | 1009.9 |
| 20260507093050 | 68 | 238 | 5.2 | 10.4 | 0.00 | 0.00 | 0.00 | 65 | 1009.7 |
| 20260507091549 | 68 | 285 | 3.5 | 10.4 | 0.00 | 0.00 | 0.00 | 66 | 1009.6 |
| 20260507090057 | 68 | 253 | 2.6 | 9.6 | 0.00 | 0.00 | 0.00 | 67 | 1009.4 |
| 20260507084557 | 68 | 261 | 4.3 | 9.6 | 0.00 | 0.00 | 0.00 | 66 | 1009.4 |
| 20260507083052 | 68 | 215 | 6.1 | 13.0 | 0.00 | 0.00 | 0.00 | 63 | 1009.2 |
| 20260507081550 | 68 | 216 | 6.1 | 12.2 | 0.00 | 0.00 | 0.00 | 64 | 1009.1 |
| 20260507080101 | 68 | 284 | 4.3 | 9.6 | 0.00 | 0.00 | 0.00 | 66 | 1009.3 |
| 20260507074553 | 67 | 291 | 2.6 | 11.3 | 0.00 | 0.00 | 0.00 | 68 | 1008.8 |